Regional Weather Roundup
Issued by NWS

Home | Current Version | Previous Version | Text Only | Print | Product List | Glossary On
Versions: 1 2 3 4 5 6 7 8 9 10 11 12 13 14 15 16 17 18 19 20 21 22 23 24 25 26 27 28 29 30 31 32 33 34 35 36 37 38 39 40 41 42 43 44 45 46 47 48 49 50
000
ASUS44 KLUB 150801
RWRTX
WEST TEXAS WEATHER ROUNDUP
NATIONAL WEATHER SERVICE LUBBOCK TX
300 AM CDT MON SEP 15 2014

NOTE: "FAIR" INDICATES FEW OR NO CLOUDS BELOW 12,000 FEET WITH NO
SIGNIFICANT WEATHER AND/OR OBSTRUCTIONS TO VISIBILITY.

TXZ004-006>008-010-012-014-016-OKZ002-150900-
TEXAS PANHANDLE/OKLAHOMA PANHANDLE

CITY           SKY/WX    TMP DP  RH WIND       PRES   REMARKS
AMARILLO       PTCLDY    62  59  90 S15       30.16S
BORGER         PTCLDY    65  59  81 SW14G22   30.13S
CANADIAN       MOCLDY    67  62  82 SW9       30.09S
DALHART        CLOUDY    65  59  81 SW20G28   30.14S
DUMAS          PTCLDY    62  59  89 SW16G24   30.13F
GUYMON         CLEAR     65  61  87 SW18      30.05S
HEREFORD       CLOUDY    65  61  88 SW10      30.19S
PAMPA          PTCLDY    62  58  88 W13G18    30.14S
PERRYTON       PTCLDY    64  60  86 SW16      30.08F
$$

TXZ026-029-035-045-048-150900-
SOUTHERN PANHANDLE/SOUTH PLAINS/ROLLING PLAINS

CITY           SKY/WX    TMP DP  RH WIND       PRES   REMARKS
CHILDRESS      CLOUDY    67  63  87 S8        30.15R
SEMINOLE       CLOUDY    62  62  99 CALM      30.21F
LUBBOCK        PTCLDY    63  60  90 SW12      30.19S
PLAINVIEW      MOCLDY    61  60  96 SW6       30.18S
SNYDER         CLOUDY    67  65  92 S6        30.17F
$$

TXZ052-054-060>062-072-078-127-140-154-169-150900-
PERMIAN BASIN/CONCHO VALLEY/BIG COUNTRY/EDWARDS PLATEAU

CITY           SKY/WX    TMP DP  RH WIND       PRES   REMARKS
ABILENE        CLOUDY    73  63  70 S6        30.16S
BIG SPRING     CLOUDY    67  64  89 CALM      30.20S
BRADY          CLEAR     70  64  83 SE5       30.16F
BROWNWOOD      CLOUDY    72  63  73 S6        30.15S
JUNCTION       CLOUDY    73  66  78 E3        30.17R
MIDLAND        CLOUDY    66  63  90 S8        30.18F
ODESSA         CLOUDY    65  62  90 S7        30.19F
SAN ANGELO     CLOUDY    72  64  76 S6        30.15S
SONORA         CLOUDY    68  66  94 CALM      30.21F
SWEETWATER     MOCLDY    69  67  94 S5        30.20S
WINK           MOCLDY    65  64  97 SE8       30.16F
$$

TXZ055-058-074-075-080-082-150900-
FAR WEST/SOUTHWEST MOUNTAINS/TRANS PECOS

CITY           SKY/WX    TMP DP  RH WIND       PRES   REMARKS
ALPINE         CLOUDY    61  59  91 S5        30.28F
DRYDEN           N/A     71  66  84 E3        30.15S
EL PASO        PTCLDY    68  58  70 NE3       30.14F
FORT STOCKTON  LGT RAIN  65  63  93 SE7       30.18F
GUADALUPE PASS FOG       57  57 100 NE7       30.28F VSB 1/4
MARFA          CLOUDY    61  59  94 E3        30.26S
PRESIDIO       FAIR      68  61  77 NE10      30.13F
$$

TXZ014-016-019-021>030-083-150900
TEXAS TECH WEST TEXAS MESONET/TEXAS PANHANDLE/NORTHERN SOUTH PLAINS

CITY           SKY/WX    TMP DP  RH WIND       PRES   REMARKS
ABERNATHY 5ENE   N/A     61  59  94 SW7       30.22S
AMARILLO 9NNE    N/A     63  59  87 SW8       30.16S
AMARILLO 7SSE    N/A     63  60  90 SW13      30.19S
AMHERST 1NE      N/A     63  61  94 S14       30.21F
BOOTLEG 11WNW    N/A     61  57  88 SW15      30.22S
CANADIAN 6E      N/A     63  60  91 S8        30.10S
CAPROCK CYN SP   N/A     65  62  87 SW10      30.17S
CHILDRESS 2NNE   N/A     67  62  82 S9        30.15R
CLARENDON 2WSW   N/A     64  59  85 SW12      30.17R
CLAUDE 12SW      N/A     64  60  88 SW6       30.19R
DIMMITT 2NE      N/A     62  59  91 S14       30.21R
FLOYDADA 2NNE    N/A     62  61  97 SW8       30.20R
FRIONA 2NE       N/A     63  58  84 SW16      30.21S
GOODLETT 3W      N/A     66  62  89 S5        30.13S
HART 3N          N/A     62  60  91 SW14      30.21R
HEREFORD 2NW     N/A     63  58  84 SW12      30.21S
MCLEAN 1E        N/A     62  60  93 S9        30.14S
MEMPHIS 1NE      N/A     65  61  86 SW3       30.16R
MULESHOE 2SSW    N/A     63  59  89 S9        30.22S
OLTON 6S         N/A     62  60  91 SW15      30.21S
PALO DURO SP     N/A     64  60  88 S7        30.20S
PAMPA 2E         N/A     62  59  90 SW13G20   30.15S
PLAINVIEW 1S     N/A     62  61  97 SW6       30.20S
SILVERTON 7ESE   N/A     63  60  91 SW12      30.17S
TULIA 2ENE       N/A     63  60  93 SW12      30.20S
TURKEY 2WSW      N/A     65  62  89 S7        30.17S
UMBARGER 3NNE    N/A     62  60  90 SW14      30.19S
$$

TXZ033>036-039>041-045>048-150900
TEXAS TECH WEST TEXAS MESONET/SOUTH PLAINS

CITY           SKY/WX    TMP DP  RH WIND       PRES   REMARKS
AIKEN 3WSW       N/A     62  61  98 SW8       30.21S
ANDREWS 2NE      N/A     64  61  91 S6        30.22S
ANTON 6SSW       N/A     61  60  96 SW7       30.22R
BROWNFIELD 2S    N/A     62  60  93 S10       30.20F
DENVR CTY 7WNW   N/A     62  59  91 S14       30.22S
GAIL 2ESE        N/A     66  63  91 S5        30.18S
LAMESA 2SE       N/A     64  62  93 S6        30.20S
LEVELLAND 4S     N/A     61  59  92 SW7       30.22S
LUBBOCK 3WNW     N/A     63  59  87 SW7       30.22R
MORTON 1ENE      N/A     62  60  92 S15       30.22R
ODONNELL 1N      N/A     62  60  91 S5        30.20F
PLAINS 3N        N/A     63  61  92 S13       30.22S
RALLS 1SE        N/A     63  60  93 SW7       30.21S
REESE CENTER     N/A     60  59  95 SW6       30.22R
SEAGRAVES 1SW    N/A     62  61  96 S7        30.21S
SEMINOLE 2NNE    N/A     63  61  93 S6        30.21F
SLATON 2NE       N/A     62  59  93 SW6       30.21R
SNYDER 3E        N/A     67  65  91 S6        30.17F
SUNDOWN 8SW      N/A     63  60  92 S12       30.22S
TAHOKA 3NNE      N/A     63  60  92 S7        30.20S
WOLFFORTH 6SSW   N/A     62  61  98 S7        30.21S
$$

TXZ031-032-036>038-042>044-150900-
TEXAS TECH WEST TEXAS MESONET/ROLLING PLAINS

CITY           SKY/WX    TMP DP  RH WIND       PRES   REMARKS
ASPERMONT 3NE    N/A     69  67  92 S3        30.15S
FLUVANNA 3WNW    N/A     65  62  90 S7        30.19S
GRAHAM 5SSW      N/A     65  61  86 S10       30.19F
GUTHRIE 10WSW    N/A     66  63  92 S2        30.15S
HASKELL 1NW      N/A     71  67  88 SE1       30.14F
JAYTON 1SSE      N/A     67  64  90 SW3       30.16R
KNOX CITY 3NW    N/A     71  65  83 SE8       30.13F
LK A HENRY 1NW   N/A     67  63  86 S2        30.17S
ODELL 4ENE       N/A     69  66  89 S7        30.14R
PADUCAH 10SW     N/A     65  63  93 SW5       30.16R
POST 1NE         N/A     65  64  97 S3        30.18S
RRING SPRGS 3N   N/A     64  63  96 S6        30.18R
SEYMOUR 3NW      N/A     70  64  82 SE8       30.13S
SPUR 1W          N/A     64  61  90 SW5       30.17S
WEINERT 2NNE     N/A     69  67  92 SE5       30.14S
WHITE RVR 6NE    N/A     63  61  93 SW6       30.18S
$$

TXZ052-054-060>062-072-078-127-140-154-169-150900-
TEXAS TECH WEST TEXAS MESONET/PERMIAN BASIN/
CONCHO VALLEY/BIG COUNTRY/EDWARDS PLATEAU

CITY           SKY/WX    TMP DP  RH WIND       PRES   REMARKS
COYANOSA 2N      N/A     66  64  94 E9        30.18S
JUNCTION 1SSW    N/A     72  66  82 SW2       30.18S
MERTZON 3NNE     N/A     69  64  84 S3        30.19S
SAN ANGELO 7NW   N/A     70  63  78 SE5       30.17S
STRLNG CT 4WSW   N/A     70  64  82 SE3       30.19S
ST LAWRNCE 5SW   N/A     65  64  97 S5        30.20S
SWEETWATR 11SW   N/A     67  65  96 SE5       30.19F
WALL 1E          N/A     69  63  80 SE7       30.17F
$$

TXZ055-058-074-075-080-082-150900-
TEXAS TECH WEST TEXAS MESONET/FAR WEST/SOUTHWEST MOUNTAINS/TRANS PECOS

CITY           SKY/WX    TMP DP  RH WIND       PRES   REMARKS
PRSMN GAP BBNP   N/A     64  63  97 N14       30.18S
GUADLPE MTN NP   N/A     57  56  96 CALM      30.29F
$$


USA.gov is the U.S. government's official web portal to all federal, state and local government web resources and services.